This demonstration page uses our WeatherBlox Daily Observations layout. Learn more.

Left ArrowRight Arrow

36.19886, -115.1175

Hourly Observations for October 12, 2020

Temp ( °F °C ) Dew Point ( °F °C ) Humidity (%) Winds ( mph kmh ) Pressure ( in mb ) Visibility ( mi km ) Precip ( " mm )
12:53 am 00:53 Clear 72 22.2 34 1.1 25 25 NW 5 7 30.03 1017 10 16 0.00 0.00
1:53 am 01:53 Clear 70 21.1 33 0.6 26 26 WNW 7 11 30.04 1017 10 16 0.00 0.00
2:53 am 02:53 Clear 66 18.9 31 -0.6 27 27 S 3 6 30.04 1017 10 16 0.00 0.00
3:53 am 03:53 Clear 68 20 30 -1.1 24 24 WNW 7 11 30.04 1017 10 16 0.00 0.00
4:53 am 04:53 Clear 68 20 31 -0.6 25 25 NW 3 6 30.06 1018 10 16 0.00 0.00
5:53 am 05:53 Clear 68 20 31 -0.6 25 25 WNW 8 13 30.06 1018 10 16 0.00 0.00
6:53 am 06:53 Sunny 65 18.3 29 -1.7 26 26 WNW 8 13 30.09 1019 10 16 0.00 0.00
7:53 am 07:53 Sunny 68 20 31 -0.6 25 25 Calm 30.11 1020 10 16 0.00 0.00
8:53 am 08:53 Sunny 74 23.3 33 0.6 22 22 SSW 3 6 30.12 1020 10 16 0.00 0.00
9:53 am 09:53 Sunny 79 26.1 30 -1.1 17 17 NNE 6 9 30.12 1020 10 16 0.00 0.00
10:53 am 10:53 Sunny 82 27.8 30 -1.1 15 15 Calm 30.11 1020 10 16 0.00 0.00
11:53 am 11:53 Sunny 84 28.9 30 -1.1 14 14 Calm 30.09 1019 10 16 0.00 0.00
12:53 pm 12:53 Sunny 86 30 29 -1.7 13 13 ESE 6 9 30.06 1018 10 16 0.00 0.00
1:53 pm 13:53 Sunny 88 31.1 29 -1.7 12 12 SSW 5 7 30.03 1017 10 16 0.00 0.00
2:53 pm 14:53 Sunny 90 32.2 29 -1.7 11 11 ESE 6 9 29.99 1016 10 16 0.00 0.00
3:53 pm 15:53 Sunny 91 32.8 29 -1.7 11 11 Calm 29.98 1015 10 16 0.00 0.00
4:53 pm 16:53 Sunny 90 32.2 29 -1.7 11 11 Calm 29.96 1015 10 16 0.00 0.00
5:53 pm 17:53 Sunny 90 32.2 29 -1.7 11 11 Calm 29.95 1014 10 16 0.00 0.00
6:53 pm 18:53 Clear 86 30 29 -1.7 13 13 Calm 29.97 1015 10 16 0.00 0.00
7:53 pm 19:53 Clear 81 27.2 33 0.6 18 18 NW 6 9 29.99 1016 10 16 0.00 0.00
8:53 pm 20:53 Clear 79 26.1 35 1.7 20 20 W 5 7 30.00 1016 10 16 0.00 0.00
9:53 pm 21:53 Clear 73 22.8 35 1.7 25 25 NW 6 9 30.00 1016 10 16 0.00 0.00
10:53 pm 22:53 Clear 72 22.2 36 2.2 27 27 NW 6 9 30.02 1017 10 16 0.00 0.00
11:53 pm 23:53 Clear 71 21.7 34 1.1 26 26 NW 7 11 30.02 1017 10 16 0.00 0.00

Powered by AerisWeather